[Date Prev][Date Next][Thread Prev][Thread Next] - [Date Index][Thread Index][Author Index]

KEPS - REVISED



ISS (ZARYA)             
1 25544U 98067A   07221.88994881  .00010652  00000-0  70505-4 0  7507
2 25544  51.6327 186.5423 0008301 221.6349 182.7599 15.76169438499254
STS 118                 
1 32008U 07035A   07221.83723351 -.03755315  00000-0 -22775-1 0    77
2 32008  51.6287 186.8286 0028306 166.3220 287.3260 15.80348673   140

----
Sent via sarex@amsat.org. Opinions expressed are those of the author.
Not an AMSAT member? Join now to support the amateur satellite program!
Subscription settings: http://amsat.org/mailman/listinfo/sarex



AMSAT Top AMSAT Home